Location: Unspecified
(26.0779°N, 0.0000°E)
Time: 23:19:52
(UTC+00:00)

Cosmos 962 Rocket - Visible Passes

Search period start: 04 April 2026 00:00
Search period end: 14 April 2026 00:00
Orbit: 949 x 999 km, 83.0° (Epoch: 29 March)

Date Brightness Start Highest point End Pass type
(mag) Time Alt. Az. Time Alt. Az. Time Alt. Az.
4 Apr 6.4 21:00:49 19° NNE 21:00:49 19° NNE 21:02:24 10° NNE visible
5 Apr 6.2 21:24:50 25° N 21:24:50 25° N 21:27:16 10° N visible
6 Apr 6.1 20:04:11 18° NE 20:04:11 18° NE 20:06:08 10° NNE visible
6 Apr 6.5 21:48:44 23° NW 21:48:44 23° NW 21:51:33 10° NNW visible
7 Apr 5.3 20:27:58 37° NE 20:27:58 37° NE 20:31:48 10° NNE visible
7 Apr 7.0 22:12:31 14° WNW 22:12:31 14° WNW 22:14:46 10° NW visible
8 Apr 4.8 20:51:36 63° NNW 20:51:36 63° NNW 20:56:51 10° N visible
9 Apr 5.6 19:30:29 22° E 19:30:37 22° E 19:35:12 10° NE visible
9 Apr 5.6 21:15:00 37° W 21:15:34 38° W 21:21:20 10° NNW visible
10 Apr 4.8 19:53:33 36° SE 19:55:18 44° E 20:01:09 10° NNE visible
10 Apr 6.7 21:38:03 15° WSW 21:40:41 19° WNW 21:44:59 10° NNW visible
11 Apr 4.4 20:15:58 23° S 20:20:07 87° E 20:26:22 10° N visible
12 Apr 5.8 18:56:19 10° SE 19:00:13 17° E 19:04:06 10° NE visible
12 Apr 5.3 20:39:03 10° SSW 20:45:03 47° W 20:51:01 10° N visible
13 Apr 5.0 19:19:15 10° SSE 19:24:52 35° E 19:30:26 10° NNE visible
13 Apr 6.5 21:05:14 10° SW 21:10:08 24° W 21:15:00 10° NNW visible
